Tracking 28794 objects as of 19-Apr-2024
HD Live streaming from Space Station
objects crossing your sky now

COSMOS 1867 COOLANT

Track COSMOS 1867 COOLANT now!
10-day predictions


NORAD ID: 39646
Int'l Code: 1987-060P
Perigee: 775.3 km
Apogee: 805.0 km
Inclination: 65.0 °
Period: 100.5 minutes
Semi major axis: 7161 km
RCS: Unknown
Launch date: July 10, 1987
Source: Commonwealth of Independent States (former USSR) (CIS)
Launch site: TYURATAM MISSILE AND SPACE COMPLEX (TTMTR)

Note: This is SATELLITE DEBRIS
Your satellite tracking list
Your tracking list is empty




NASA's NSSDC Master Catalog

Two Line Element Set (TLE):
1 39646U 87060P   24108.31021337  .00001300  00000-0  51341-3 0  9995
2 39646  65.0098  73.2765 0020763 274.3548  85.5164 14.32603387524275
Source of the keplerian elements: AFSPC